Regional Weather Roundup
Issued by NWS

Home | Current Version | Previous Version | Graphics & Text | Print | Product List | Glossary On
Versions: 1 2 3 4 5 6 7 8 9 10 11 12 13 14 15 16 17 18 19 20 21 22 23 24 25 26 27 28 29 30 31 32 33 34 35 36 37 38 39 40 41 42 43 44 45 46 47 48 49 50
000
ASUS43 KDMX 260207
RWRIA

WEATHER ROUNDUP FOR IOWA
NATIONAL WEATHER SERVICE DES MOINES IA
900 PM CDT SAT APR 25 2015

NOTE: "FAIR" INDICATES FEW OR NO CLOUDS BELOW 12,000 FEET WITH NO
SIGNIFICANT WEATHER AND/OR OBSTRUCTIONS TO VISIBILITY.

* - THESE STATIONS ARE NOT NWS STATIONS...THUS NOT UNDER NWS
QUALITY CONTROL.  THEY ALSO DO NOT REPORT WEATHER SUCH
AS PRECIPITATION OR FOG.

IAZ001>003-012>014-020>022-031>034-043>046-260300-
   NORTHWEST IOWA

CITY           SKY/WX    TMP DP  RH WIND       PRES   REMARKS
CARROLL *      CLOUDY    48  43  81 E12       29.87R
CHEROKEE *     CLOUDY    52  43  71 E9        29.89R
DENISON *      CLOUDY    48  45  87 E12       29.85R
LE MARS *      CLOUDY    54  43  66 NE13      29.90R
ORANGE CITY *  CLOUDY    52  43  71 E8        29.90R
SHELDON *      CLOUDY    52  41  66 E12G18    29.89R
SIOUX CITY     CLOUDY    55  40  56 E10       29.87R
SPENCER        CLOUDY    51  41  68 NE10      29.90R
STORM LAKE *   CLOUDY    50  41  71 E14       29.89R
$$

IAZ055>058-069>071-079>083-090>094-260300-
   SOUTHWEST IOWA

CITY           SKY/WX    TMP DP  RH WIND       PRES   REMARKS
ATLANTIC *     CLOUDY    50  45  81 NE14G22   29.84R
AUDUBON *      MOCLDY    48  43  81 NE9       29.86R
CLARINDA *     CLOUDY    50  46  87 NE8       29.83R
COUNCIL BLFS * CLOUDY    50  50 100 NE10      29.84R
CRESTON *      CLOUDY    48  46  93 E10       29.82R
HARLAN  *      CLOUDY    50  50 100 NE13      29.88R
LAMONI         CLOUDY    48  46  93 NE13      29.80R FOG
RED OAK *      CLOUDY    50  46  87 NE15      29.83R
SHENANDOAH *   CLOUDY    50  48  93 NE14      29.83R
$$

IAZ047>049-059>061-072>074-084-260300-
   CENTRAL IOWA

CITY           SKY/WX    TMP DP  RH WIND       PRES   REMARKS
AMES           CLOUDY    49  40  71 NE9       29.86R
ANKENY *       CLOUDY    50  43  76 NE9       29.85R
CHARITON *     CLOUDY    48  43  81 E13       29.82R
DES MOINES     CLOUDY    51  41  68 NE12      29.85R
GRINNELL*      MOCLDY    46  41  81 NE13      29.84R
KNOXVILLE *    CLOUDY    50  41  71 NE10      29.81R
MARSHALLTOWN   CLOUDY    48  39  71 E16       29.85R
PELLA *        CLOUDY    48  45  87 E6        29.84R
PERRY *        CLOUDY    50  43  76 NE8       29.86R
$$

IAZ004>006-015-016-023>025-035-036-260300-
   NORTH CENTRAL IOWA

CITY           SKY/WX    TMP DP  RH WIND       PRES   REMARKS
ALGONA *       MOCLDY    48  39  71 NE7       29.90R
CLARION *      CLOUDY    48  41  76 NE9       29.89R
ESTHERVILLE    PTCLDY    46  38  73 E8        29.90R
FORT DODGE *   CLOUDY    48  39  71 NE8       29.89R
MASON CITY     PTCLDY    44  38  79 NE5       29.90R
FOREST CITY *  CLEAR     43  37  81 N3        29.90R
IOWA FALLS *   CLOUDY    48  39  71 NE6       29.88R
$$

IAZ007>011-017>019-026>030-037>042-050>054-066-260300-
   NORTHEAST IOWA

CITY           SKY/WX    TMP DP  RH WIND       PRES   REMARKS
CEDAR RAPIDS   CLOUDY    47  38  71 NE15      29.84R
CHARLES CITY * CLOUDY    48  39  71 NE3       29.89R
CLINTON *      PTCLDY    45  37  76 NE13      29.87R
DECORAH *      CLEAR     45  32  61 E5        29.87R
DUBUQUE        CLOUDY    46  37  71 NE8       29.86R
MONTICELLO *   CLOUDY    46  39  76 E8        29.86R
OELWEIN *      CLOUDY    46  39  76 NE6       29.88R
WATERLOO       CLOUDY    47  40  76 E5        29.87R
$$

IAZ064-065-067-068-078-260300-
   EAST CENTRAL IOWA

CITY           SKY/WX    TMP DP  RH WIND       PRES   REMARKS
DAVENPORT      CLOUDY    45  37  73 NE16      29.84R
IOWA CITY      CLOUDY    48  38  68 NE15G28   29.84R
MT. PLEASANT * CLOUDY    46  41  81 NE15G22   29.80R
MUSCATINE *    CLOUDY    48  39  71 NE18      29.83R
QUAD CITIES    CLOUDY    47  38  71 NE10      29.83R
$$

IAZ062-063-075>077-085>089-095>099-260300-
   SOUTHEAST IOWA

CITY           SKY/WX    TMP DP  RH WIND       PRES   REMARKS
BURLINGTON     CLOUDY    48  44  86 NE14G22   29.78R
FAIRFIELD *    CLOUDY    48  41  76 NE14G21   29.81R
FORT MADISON * CLOUDY    46  45  93 NE10G17   29.79R
KEOKUK *       CLOUDY    48  45  87 NE13      29.77R
OSKALOOSA *    CLOUDY    48  41  76 NE13G23   29.82R
CENTERVILLE *  CLOUDY    46  46 100 NE14G22   29.81R
OTTUMWA        CLOUDY    48  41  76 NE13      29.81R
WASHINGTON *   CLOUDY    46  46 100 NE13G21   29.81R
$$

ABBREVIATIONS USED IN REMARKS
   TC - TEMPERATURES IN CELSIUS
  WCI - WIND CHILL INDEX
   HX - HEAT INDEX
  VSB - VISIBILITY
$$




USA.gov is the U.S. government's official web portal to all federal, state and local government web resources and services.